Cosmos 1733 - Orbit

View from above orbital plane
View from above orbital plane
View from above satellite
View from above satellite

Ground track
Ground track

The orbit data is extracted from the following two-line orbital elements,

1 16611U 86018A   13139.38288920  .00004067  00000-0  26011-3 0  6868
2 16611 082.5036 065.5667 0015696 092.7661 267.5364 15.08250041483705
Epoch (UTC): 19 May 2013 09:11:21
Eccentricity: 0.0015696
inclination: 82.5036°
perigee height: 530 km
apogee height: 552 km
right ascension of ascending node: 65.5667°
argument of perigee: 92.7661°
revolutions per day: 15.08250041
mean anomaly at epoch: 267.5364°
orbit number at epoch: 48370

The dashed part of the orbit path shows where the satellite is in the earth's shadow,  

Developed and maintained by Chris Peat, Heavens-Above GmbH. Please read the updated FAQ before sending e-mail. Imprint. DLR